Regional Weather Roundup
Issued by NWS Grand Forks, ND

Home | Current Version | Previous Version | Graphics & Text | Print | Product List | Glossary On
Versions: 1 2 3 4 5 6 7 8 9 10 11 12 13 14 15 16 17 18 19 20 21 22 23 24 25 26 27 28 29 30 31 32 33 34 35 36 37 38 39 40 41 42 43 44 45 46 47 48 49 50
000
ASUS43 KFGF 271210
RWRFGF
PRAIRIE TO PINES  WEATHER ROUNDUP
NATIONAL WEATHER SERVICE EASTERN NORTH DAKOTA/GRAND FORKS ND
700 AM CDT SAT AUG 27 2016

 **SATELLITE DATA USED TO AUGMENT SKY COVER AT AUTOMATED STATIONS**
 *****  WEATHER ACROSS EASTERN NORTH DAKOTA  *****

CITY           SKY/WX    TMP DP  RH WIND       PRES   REMARKS
GRAND FORKS    TSTM      60  57  89 S12       29.96R FOG
6HR MIN TEMP:  55; 6HR MAX TEMP:  60; 6HR PCP:  0.01;

GRAND FRKS AFB LGT RAIN  59  57  94 S12       29.95S
GRAND FRKS NWS   N/A     57 N/A N/A S5          N/A
DEVILS LAKE    CLOUDY    56  53  90 SE8       29.93S
6HR MIN TEMP:  55; 6HR MAX TEMP:  60;

FARGO          CLOUDY    61  59  93 SE8       29.98S
WAHPETON ARPT  CLOUDY    59  55  88 SE6       30.01R
$$

 ***** WEATHER ACROSS CENTRAL AND WESTERN NORTH DAKOTA  *****

CITY           SKY/WX    TMP DP  RH WIND       PRES   REMARKS
BISMARCK       CLEAR     48  48 100 CALM      29.93S
6HR MIN TEMP:  48; 6HR MAX TEMP:  56;

MINOT          MOCLDY    56  52  86 CALM      29.89S
6HR MIN TEMP:  53; 6HR MAX TEMP:  61;

JAMESTOWN      CLOUDY    57  56  96 S8        29.94S
6HR MIN TEMP:  55; 6HR MAX TEMP:  58; 6HR PCP:  0.01;

MINOT AFB      MOCLDY    48  47  95 W5        29.89R
GARRISON         N/A     53  52  96 W6        29.90F
WILLISTON      CLEAR     45  41  86 CALM      29.92R
6HR MIN TEMP:  44; 6HR MAX TEMP:  55;

DICKINSON      MOCLDY    50  46  86 S7        29.91F
6HR MIN TEMP:  48; 6HR MAX TEMP:  55; 6HR PCP:  0.04;

HETTINGER      FOG       42  41  96 E3        29.97S VSB 1/4
6HR MIN TEMP:  40; 6HR MAX TEMP:  56;

$$

 *****  OTHER AIRPORT OBSERVATIONS IN OUR AREA  *****

CITY           SKY/WX    TMP DP  RH WIND       PRES   REMARKS
WALHALLA       NOT AVBL
GRAFTON AIRPOR FAIR      54  54 100 S9        29.95S
VALLEY CITY AR CLOUDY    59  59 100 CALM      29.97S
CANDO          NOT AVBL
CAVALIER APRT    N/A     50  50 100 S5        29.92F
GWINNER        FAIR      59  57  94 SE6       29.97F
SHEYENNE NWR     N/A     59  58  96 SE7       29.95
ROLLA          CLOUDY    54  54 100 SW8       29.91F
 ***** THE ABOVE OBSERVATIONS ARE NON NWS ARE NOT QUALITY
       CONTROLLED AND MAY MIS-REPORT RAIN FOR SNOW...
$$

  *****  WEATHER ACROSS NORTHERN MINNESOTA  *****

CITY           SKY/WX    TMP DP  RH WIND       PRES   REMARKS
FLAG ISLAND    MOCLDY    64  55  72 CALM      29.98S HAZE
WARROAD        CLOUDY    57  54  88 S5        30.00S
ROSEAU         PTCLDY    59  54  82 S6        29.98F
HALLOCK        PTCLDY    54  52  94 SE8       29.94F
THF RVR FALLS  LGT RAIN  59  56  89 S8        29.99F
6HR MIN TEMP:  54; 6HR MAX TEMP:  59; 6HR PCP: TRACE;

BAUDETTE       CLOUDY    57  55  93 S6        30.01S
6HR MIN TEMP:  55; 6HR MAX TEMP:  61;

WASKISH        CLOUDY    57  55  94 S3        30.04S
CROOKSTON      LGT RAIN  59  57  94 S13       29.97
STEPHEN NDAWN    N/A     55  54  94 SE3         N/A
GREENBUSH NDAW   N/A     55  54  94 S5          N/A
$$
  *****  WEATHER ACROSS CENTRAL AND WEST MINNESOTA  *****

CITY           SKY/WX    TMP DP  RH WIND       PRES   REMARKS
FOSSTON        LGT RAIN  57  55  94 SE6       30.01F
BEMIDJI        DRIZZLE   58  56  94 S3        30.05S
PARK RAPIDS    CLOUDY    59  55  87 SE6       30.05S
6HR MIN TEMP:  59; 6HR MAX TEMP:  62; 6HR PCP: TRACE;

ELBOW LAKE     CLOUDY    59  58  94 E7        30.03S
WADENA         CLOUDY    57  55  94 CALM      30.05R
DETROIT LAKES  MOCLDY    61  57  88 SE5       30.03F
MOORHEAD       MOCLDY    61  57  88 SE5       29.99S
FERGUS FALLS   CLOUDY    61  57  88 SE8       30.03F
MORRIS MN      CLOUDY    61  57  88 SE5       30.02F
STAPLES        CLOUDY    57  55  94 SE3       30.06S
$$
  *****  WEATHER ELSEWHERE ACROSS MINNESOTA  *****

CITY           SKY/WX    TMP DP  RH WIND       PRES   REMARKS
DULUTH         CLOUDY    57  55  93 E5        30.10R
6HR MIN TEMP:  57; 6HR MAX TEMP:  61;

INTRNTL FALLS  CLOUDY    54  53  97 SE3       30.05S
6HR MIN TEMP:  51; 6HR MAX TEMP:  59;

ELY            MOCLDY    54  52  94 CALM      30.10S
CLOQUET        MOCLDY    55  54  94 E3        30.10S
WHEATON        CLOUDY    61  61 100 SE9       30.02S
BRAINERD       CLOUDY    59  56  89 SE3       30.07S
6HR MIN TEMP:  58; 6HR MAX TEMP:  61; 6HR PCP: TRACE;

HIBBING        CLOUDY    52  52 100 CALM      30.09S
6HR MIN TEMP:  51; 6HR MAX TEMP:  53;

ALEXANDRIA     CLOUDY    59  57  93 SE5       30.06S
6HR MIN TEMP:  59; 6HR MAX TEMP:  62;

SAINT CLOUD    CLOUDY    58  58 100 E5        30.07R
6HR MIN TEMP:  58; 6HR MAX TEMP:  60; 6HR PCP: TRACE;

MINNEAPOLIS    CLOUDY    64  59  83 E5        30.07R
6HR MIN TEMP:  64; 6HR MAX TEMP:  65; 6HR PCP: TRACE;

$$

  *****  WEATHER ACROSS SOUTH DAKOTA  *****

CITY           SKY/WX    TMP DP  RH WIND       PRES   REMARKS
SIOUX FALLS    CLOUDY    61  61 100 E5        30.02S FOG
6HR MIN TEMP:  61; 6HR MAX TEMP:  65; 6HR PCP:  0.64;

BROOKINGS      CLOUDY    59  57  93 SE7       30.03R
WATERTOWN      CLOUDY    61  59  93 S7        30.01F
6HR MIN TEMP:  60; 6HR MAX TEMP:  63;

HURON          FOG       58  58 100 SE7       29.97F VSB 1/4
6HR MIN TEMP:  56; 6HR MAX TEMP:  62;

SISSETON         N/A     60  58  92 S7        29.98S
ABERDEEN       MOCLDY    59  57  93 S10       29.96F
6HR MIN TEMP:  56; 6HR MAX TEMP:  60;

MITCHELL       MOCLDY    62  60  93 SE6       30.00F
PIERRE         CLOUDY    56  54  93 SW7       29.96R
6HR MIN TEMP:  54; 6HR MAX TEMP:  58;

MOBRIDGE       PTCLDY    56  52  86 S3        29.92S
RAPID CITY     LGT RAIN  53  51  93 E6        30.00S
6HR MIN TEMP:  51; 6HR MAX TEMP:  59; 6HR PCP:  0.19;

$$

  *****  SOME WEATHER IN NEARBY STATES *****

CITY           SKY/WX    TMP DP  RH WIND       PRES   REMARKS
GLASGOW MT     CLEAR     46  42  86 E8        29.87F
6HR MIN TEMP:  46; 6HR MAX TEMP:  52;

GREAT FALLS MT CLOUDY    60  35  39 S12       29.84F
6HR MIN TEMP:  49; 6HR MAX TEMP:  60;

CHEYENNE WY    CLEAR     48  42  80 W9        30.15R
6HR MIN TEMP:  47; 6HR MAX TEMP:  53;

SCOTTSBLUFF NE FOG       54  53  97 SE7       30.05S VSB 1/4
6HR MIN TEMP:  51; 6HR MAX TEMP:  57;

OMAHA NE       FOG       67  64  90 S7        30.01R VSB 1/2
6HR MIN TEMP:  66; 6HR MAX TEMP:  67;

DES MOINES IA  CLOUDY    64  62  93 N3        30.01R FOG
6HR MIN TEMP:  64; 6HR MAX TEMP:  65; 6HR PCP: TRACE;

DAVENPORT IA   CLOUDY    70  68  93 S3        30.04R
6HR MIN TEMP:  67; 6HR MAX TEMP:  70; 6HR PCP:  0.11;

CHICAGO IL     RAIN      70  69  97 CALM      30.09R FOG
6HR MIN TEMP:  67; 6HR MAX TEMP:  70; 6HR PCP:  0.63;

EAU CLAIRE WI  PTCLDY    59  57  93 E5        30.09S
6HR MIN TEMP:  58; 6HR MAX TEMP:  63;

LA CROSSE WI   CLOUDY    64  61  90 CALM      30.08R
6HR MIN TEMP:  63; 6HR MAX TEMP:  65; 6HR PCP: TRACE;

$$

  *****  SOME NATIONAL WEATHER *****

CITY           SKY/WX    TMP DP  RH WIND       PRES   REMARKS
LA GUARDIA NY  MOSUNNY   78  61  55 NE6       30.17R
6HR MIN TEMP:  76; 6HR MAX TEMP:  80;

RALEIGH NC     MOSUNNY   78  74  87 SW3       30.12R
6HR MIN TEMP:  75; 6HR MAX TEMP:  80;

ATLANTA GA     PTCLDY    75  71  87 E3        30.12R
6HR MIN TEMP:  74; 6HR MAX TEMP:  79;

NEW ORLEANS LA CLOUDY    81  75  82 E3        29.96R
6HR MIN TEMP:  79; 6HR MAX TEMP:  83; 6HR PCP:  0.03;

OKLAHOMA CITY  CLOUDY    70  69  97 S6        30.03R
6HR MIN TEMP:  68; 6HR MAX TEMP:  72;

ALBUQUERQUE NM PTCLDY    60  49  66 E8        30.17F
6HR MIN TEMP:  60; 6HR MAX TEMP:  69;

SALT LAKE CITY PTCLDY    63  36  36 SE7       30.04R
6HR MIN TEMP:  62; 6HR MAX TEMP:  69;

LOS ANGELES CA CLOUDY    66  57  72 S5        29.96R
6HR MIN TEMP:  65; 6HR MC1F1C2F2C3F3C4F4C5F5C6F6C7F7C8F8C9F9CaFaCbFbCcFcCd!



USA.gov is the U.S. government's official web portal to all federal, state and local government web resources and services.